Powrót do katalogu

COSMOS 2115

AktywnyMilitariaPO
NORAD 21029·PAYLOAD·🇷🇺 Russia

Wystrzelony Dec 22, 1990 z Plesetsk Cosmodrome

Loading…

Następne Przeloty (najbliższe 24 godziny)

TLE

ŚwieżeSource: Space-Track

Epoka: Sep 14, 2026, 04:33 UTC

1 21029U 90114B   26257.18974414  .00000040  00000-0  16224-3 0  9991
2 21029  82.5714 154.7824 0004155  16.3374 150.2405 12.63534070647648

Śledź COSMOS 2115 w czasie rzeczywistym z AllMySat

Download on the App Store